Date,TemperatureHighF,TemperatureAvgF,TemperatureLowF,DewpointHighF,DewpointAvgF,DewpointLowF,HumidityHigh,HumidityAvg,HumidityLow,PressureMaxIn,PressureMinIn,WindSpeedMaxMPH,WindSpeedAvgMPH,GustSpeedMaxMPH,PrecipitationSumIn
2013-1-1,32.6,20.6,3.5,27.0,11.4,-3.0,83,68,58,29.96,29.70,10,3,0,0.00
2013-1-2,19.5,6.0,-3.3,13.0,-1.0,-11.0,85,73,58,30.27,29.92,17,3,0,0.00
2013-1-3,12.0,-0.7,-11.0,-3.0,-8.8,-16.0,79,69,49,30.28,30.04,5,1,0,0.00
2013-1-4,32.6,19.0,-0.9,25.0,12.6,-5.0,85,76,63,30.03,29.83,9,2,0,0.00
2013-1-5,32.1,26.8,14.1,26.0,17.2,10.0,84,68,53,30.26,29.84,15,3,0,0.01
2013-1-6,29.4,22.7,13.0,27.0,19.4,9.0,93,87,81,30.22,29.95,4,0,0,0.00
2013-1-7,30.3,22.4,10.2,29.0,16.0,7.0,94,77,60,30.40,29.98,13,2,0,0.00
2013-1-8,38.4,21.3,7.8,23.0,14.8,5.0,90,77,52,30.43,30.28,4,1,0,0.07
2013-1-9,42.7,25.6,13.7,33.0,20.5,11.0,91,81,60,30.43,29.98,12,1,0,0.04
2013-1-10,38.7,35.2,25.9,32.0,24.5,21.0,82,66,57,30.58,30.04,13,5,0,0.04
2013-1-11,34.4,28.2,19.8,31.0,23.9,17.0,94,84,66,30.57,30.20,9,3,0,0.00
2013-1-12,38.1,35.3,32.7,37.0,34.2,31.0,96,95,94,30.21,30.12,8,2,0,0.02
2013-1-13,42.1,37.6,33.5,41.0,36.7,33.0,97,97,96,30.16,29.96,7,2,0,0.00
2013-1-14,51.7,40.5,32.4,49.0,33.4,23.0,97,78,47,30.28,29.85,12,2,0,0.01
2013-1-15,33.9,29.6,26.4,26.0,22.5,19.0,87,75,60,30.34,30.25,6,0,0,0.00
2013-1-16,28.8,27.4,25.8,27.0,24.9,21.0,93,90,79,30.26,29.81,4,0,0,0.00
2013-1-17,35.5,23.7,12.7,29.0,16.5,0.0,94,75,47,30.17,29.81,15,2,0,0.05
2013-1-18,17.3,9.9,0.4,4.0,-4.1,-10.0,70,54,38,30.42,30.12,9,2,0,0.00
2013-1-19,38.0,26.4,13.5,25.0,17.1,5.0,86,68,56,30.34,29.83,5,1,0,0.03
2013-1-20,42.0,31.1,17.6,32.0,19.5,0.0,84,63,45,29.95,29.50,17,4,0,0.10
2013-1-21,22.1,16.0,7.4,14.0,4.3,-3.0,87,61,47,30.09,29.83,9,1,0,0.00
2013-1-22,16.9,11.3,0.1,14.0,3.5,-8.0,88,72,47,30.09,29.81,13,2,0,0.00
2013-1-23,3.7,-1.6,-10.9,-5.0,-12.5,-18.0,79,61,40,30.22,30.08,12,2,0,0.00
2013-1-24,9.9,-2.3,-16.7,-9.0,-14.8,-22.0,78,58,38,30.37,30.19,14,3,0,0.00
2013-1-25,14.5,6.6,-4.1,4.0,-6.6,-11.0,81,56,38,30.41,30.14,9,2,0,0.00
2013-1-26,14.8,8.8,3.3,4.0,-2.4,-9.0,81,62,37,30.31,30.12,11,3,0,0.00
2013-1-27,21.1,12.1,4.6,6.0,-2.1,-6.0,84,56,33,30.54,30.31,10,3,0,0.00
2013-1-28,17.7,10.1,1.0,15.0,4.9,-6.0,90,80,58,30.54,30.10,5,0,0,0.00
2013-1-29,31.1,23.7,17.6,30.0,21.1,15.0,94,90,86,30.25,30.11,7,2,0,0.03
2013-1-30,46.7,38.8,31.2,46.0,37.8,30.0,97,96,94,30.12,29.36,11,5,0,0.42
2013-1-31,51.5,37.4,21.6,51.0,30.2,12.0,98,77,49,29.53,28.84,21,6,0,0.58